Flag for U.S.A. Weather past 2 weeks in St. Petersburg, Florida, U.S.A.

Now
75 °F

Scattered clouds.


Feels Like: 74 °F
Forecast: 72 / 82 °F
Wind: 3 mph from Southwest

Location: Whitted Airport

Current Time: Apr 21, 2015 at 9:35:23 AM

Latest Report: Apr 21, 2015 at 8:53 AM


Visibility: 10 mi

Pressure: 29.96 "Hg

Humidity: 88%

Dew point: 71 °F

Location of St. PetersburgLocation

Historic Weather in St. Petersburg — Graph

°F

St. Petersburg temperature yesterday

Maximum temperature yesterday: 83 °F (at 11:53 AM)
Minimum temperature yesterday: 71 °F (at 5:53 PM)
Average temperature yesterday: 76 °F

Past Weeks' High & Low Weather Summary

 TemperatureHumidityPressure
High87 °F (Apr 7, 3:53 PM)94% (Apr 19, 7:53 AM)30.17 "Hg (Apr 19, 7:53 AM)
Low71 °F (Apr 6, 7:53 AM)46% (Apr 6, 3:53 PM)29.85 "Hg (Apr 20, 4:53 AM)
Average78 °F75%30.04 "Hg
* Reported Apr 6 7:53 AM — Apr 21 7:53 AM, St. Petersburg, Weather by CustomWeather, © 2015

Note: Actual official high and low records may vary slightly from our data, if they occured in-between our weather recording intervals... More about our weather records

Advertising

St. Petersburg weather history for previous 24 hours

 ConditionsComfort  
Time TempWeatherWind HumidityBarometerVisibility
7:53 AM
Tue, Apr 21
74 °FClear.No wind91%29.94 "Hg10 mi
6:53 AM73 °FPassing clouds.5 mph90%29.92 "Hg10 mi
6:04 AM73 °FPassing clouds.8 mph90%29.90 "Hg10 mi
5:53 AM73 °FClear.8 mph90%29.90 "Hg10 mi
4:53 AM72 °FPassing clouds.6 mph91%29.91 "Hg10 mi
3:53 AM72 °FPassing clouds.7 mph91%29.91 "Hg10 mi
2:53 AM72 °FClear.8 mph87%29.91 "Hg10 mi
1:53 AM72 °FClear.6 mph87%29.92 "Hg10 mi
12:53 AM72 °FClear.8 mph87%29.93 "Hg10 mi
11:53 PM
Mon, Apr 20
72 °FClear.9 mph87%29.93 "Hg10 mi
10:53 PM72 °FClear.8 mph87%29.92 "Hg10 mi
9:53 PM72 °FPassing clouds.9 mph87%29.92 "Hg10 mi
8:53 PM71 °FPassing clouds.10 mph90%29.87 "Hg10 mi
7:53 PM72 °FScattered clouds.13 mph87%29.86 "Hg10 mi
6:53 PM73 °FPassing clouds.6 mph84%29.88 "Hg10 mi
5:53 PM71 °FLight rain. Partly sunny.8 mph93%29.88 "Hg10 mi
5:02 PM72 °FThundershowers. Fog.16 mph87%29.87 "Hg2 mi
4:56 PM72 °FThundershowers. Cloudy.21 mph87%29.87 "Hg8 mi
3:53 PM82 °FBroken clouds.16 mph74%29.86 "Hg10 mi
3:03 PM82 °FScattered clouds.15 mph77%29.87 "Hg10 mi
1:53 PM82 °FScattered clouds.14 mph74%29.88 "Hg10 mi
12:53 PM83 °FScattered clouds.17 mph68%29.90 "Hg10 mi
11:53 AM83 °FSunny.13 mph68%29.92 "Hg10 mi
10:53 AM81 °FPassing clouds.8 mph65%29.90 "Hg10 mi
9:53 AM80 °FSunny.10 mph67%29.90 "Hg10 mi
Weather by CustomWeather, © 2015

See weather overviewHow to use our weather pages